STARLINK-1811 (46710 NORAD) Tracking and Keplerian Element Data

This shows tracking and keplerian element data for the satellite.

Feedback or suggestion? Click here.




ElementValue
Catalog46710
NameSTARLINK-1811
Epoch Orbit773
Epoch Day338.83334491
Epoch Year2020
RAAN244.4612
Inclination53.0572
Eccentricity0.0001375
Argument of Perigee70.8066
Mean Anonmoly24.035
Mean Motion15.20417114
Decay Rate-0.0105577
L11 46710U 20073AS 20338.83334491 -.01055770 00000-0 -52207-1 0 9995
L22 46710 53.0572 244.4612 0001375 70.8066 24.0350 15.20417114 7735

Live tracking and technical data element details for STARLINK-1811 (NORAD 46710). STARLINK-1811 can be tracked NOW for your location showing map with azimuth and elevation plus other details from your city location.

Track the satellite on the map from your city or location and see movement details for azimuth, elevation, latitude, longitude, range, height, and movement on the map or in text.







IsCatalogInMostPopularTable: catalog: 46710, numindb: 10
Update: records affected: 1



GetName: 46710 STARLINK-1811

Hit Count: updated at: Sat, 05 Dec 2020 06:14:41 GMT